Time,TemperatureF,DewpointF,PressureIn,WindDirection,WindDirectionDegrees,WindSpeedMPH,WindSpeedGustMPH,Humidity,HourlyPrecipIn,Conditions,Clouds,dailyrainin,SolarRadiationWatts/m^2,SoftwareType,DateUTC
2013-02-14 00:02:00,50.1,23.4,29.59,NE,34,3.9,4.3,34,-99.99,,,0.00,0,rob ver 1A,2013-02-14 07:02:00,
2013-02-14 00:07:00,49.9,23.5,29.59,NNE,27,3.9,4.5,35,-99.99,,,0.00,0,rob ver 1A,2013-02-14 07:07:00,
2013-02-14 00:12:00,48.9,24.3,29.59,NNE,16,3.7,3.8,37,-99.99,,,0.00,0,rob ver 1A,2013-02-14 07:12:00,
2013-02-14 00:17:00,48.7,24.5,29.59,North,1,2.2,2.5,38,-99.99,,,0.00,0,rob ver 1B,2013-02-14 07:17:00,
2013-02-14 00:22:00,48.6,24.6,29.59,North,6,2.1,2.5,38,-99.99,,,0.00,0,rob ver 1A,2013-02-14 07:22:00,
2013-02-14 00:27:00,48.5,24.4,29.59,North,0,2.0,2.1,38,-99.99,,,0.00,0,rob ver 1A,2013-02-14 07:27:00,
2013-02-14 00:32:00,48.5,24.5,29.59,North,8,2.0,2.2,38,-99.99,,,0.00,0,rob ver 1A,2013-02-14 07:32:00,
2013-02-14 00:37:00,49.0,24.3,29.59,NNW,343,2.3,2.7,38,-99.99,,,0.00,0,rob ver 1A,2013-02-14 07:37:00,
2013-02-14 00:42:00,49.2,23.4,29.59,NW,324,2.2,2.4,35,-99.99,,,0.00,0,rob ver 1A,2013-02-14 07:42:00,
2013-02-14 00:47:00,49.4,23.5,29.59,WNW,297,2.5,2.7,35,-99.99,,,0.00,0,rob ver 1A,2013-02-14 07:47:00,
2013-02-14 00:52:00,49.4,23.3,29.59,WNW,300,3.2,3.3,35,-99.99,,,0.00,0,rob ver 1A,2013-02-14 07:52:00,
2013-02-14 00:58:00,48.7,24.0,29.59,NW,309,2.8,3.0,37,-99.99,,,0.00,0,rob ver 1A,2013-02-14 07:58:00,
2013-02-14 01:03:00,48.3,24.2,29.59,NW,305,2.4,2.6,38,-99.99,,,0.00,0,rob ver 1A,2013-02-14 08:03:00,
2013-02-14 01:08:00,48.3,23.9,29.59,NNW,339,2.4,2.7,38,-99.99,,,0.00,0,rob ver 1A,2013-02-14 08:08:00,
2013-02-14 01:13:00,48.3,23.8,29.62,NW,326,2.1,2.3,37,-99.99,,,0.00,0,rob ver 1A,2013-02-14 08:13:00,
2013-02-14 01:18:00,48.0,24.4,29.59,ESE,120,3.3,4.7,40,-99.99,,,0.00,0,rob ver 1B,2013-02-14 08:18:00,
2013-02-14 01:23:00,47.0,24.2,29.59,NE,42,2.9,3.2,40,-99.99,,,0.00,0,rob ver 1A,2013-02-14 08:23:00,
2013-02-14 01:28:00,46.8,24.3,29.59,NE,45,2.5,2.6,40,-99.99,,,0.00,0,rob ver 1A,2013-02-14 08:28:00,
2013-02-14 01:33:00,47.2,23.9,29.62,NNE,29,2.2,2.4,39,-99.99,,,0.00,0,rob ver 1A,2013-02-14 08:33:00,
2013-02-14 01:38:00,47.4,24.2,29.59,NNE,24,3.0,3.4,39,-99.99,,,0.00,0,rob ver 1A,2013-02-14 08:38:00,
2013-02-14 01:43:00,47.0,24.3,29.59,North,7,2.7,2.8,40,-99.99,,,0.00,0,rob ver 1A,2013-02-14 08:43:00,
2013-02-14 01:48:00,47.6,24.3,29.59,NNW,335,1.9,2.1,39,-99.99,,,0.00,0,rob ver 1A,2013-02-14 08:48:00,
2013-02-14 01:53:00,48.5,23.9,29.59,NW,306,2.3,2.5,37,-99.99,,,0.00,0,rob ver 1B,2013-02-14 08:53:00,
2013-02-14 01:58:00,48.9,25.2,29.59,NW,309,1.2,1.5,39,-99.99,,,0.00,0,rob ver 1A,2013-02-14 08:58:00,
2013-02-14 02:03:00,47.2,24.5,29.59,NW,310,1.5,1.6,40,-99.99,,,0.00,0,rob ver 1A,2013-02-14 09:03:00,
2013-02-14 02:08:00,46.7,24.2,29.59,North,5,1.3,1.5,40,-99.99,,,0.00,0,rob ver 1A,2013-02-14 09:08:00,
2013-02-14 02:13:00,46.9,24.0,29.62,North,349,1.0,1.0,40,-99.99,,,0.00,0,rob ver 1A,2013-02-14 09:13:00,
2013-02-14 02:18:00,47.3,23.9,29.62,NNE,21,1.0,1.1,39,-99.99,,,0.00,0,rob ver 1A,2013-02-14 09:18:00,
2013-02-14 02:23:00,47.3,23.9,29.59,ENE,66,1.6,2.0,39,-99.99,,,0.00,0,rob ver 1A,2013-02-14 09:23:00,
2013-02-14 02:28:00,46.8,23.7,29.59,NNE,27,2.0,2.3,39,-99.99,,,0.00,0,rob ver 1A,2013-02-14 09:28:00,
2013-02-14 02:33:00,47.0,23.8,29.59,NNE,20,3.1,3.5,39,-99.99,,,0.00,0,rob ver 1A,2013-02-14 09:33:00,
2013-02-14 02:38:00,47.8,24.0,29.59,NNE,15,3.0,3.2,39,-99.99,,,0.00,0,rob ver 1A,2013-02-14 09:38:00,
2013-02-14 02:43:00,46.5,24.0,29.59,NNE,31,1.7,2.2,41,-99.99,,,0.00,0,rob ver 1B,2013-02-14 09:43:00,
2013-02-14 02:48:00,46.1,24.1,29.59,NNE,17,1.0,1.5,41,-99.99,,,0.00,0,rob ver 1A,2013-02-14 09:48:00,
2013-02-14 02:53:00,45.8,24.3,29.59,NNW,346,1.9,2.1,42,-99.99,,,0.00,0,rob ver 1A,2013-02-14 09:53:00,
2013-02-14 02:58:00,46.1,24.5,29.59,NW,307,1.1,1.3,42,-99.99,,,0.00,0,rob ver 1A,2013-02-14 09:58:00,
2013-02-14 03:03:00,46.2,24.0,29.59,NW,312,1.2,1.3,41,-99.99,,,0.00,0,rob ver 1A,2013-02-14 10:03:00,
2013-02-14 03:08:00,46.7,23.8,29.59,North,3,2.0,2.2,40,-99.99,,,0.00,0,rob ver 1A,2013-02-14 10:08:00,
2013-02-14 03:13:00,47.2,23.6,29.59,North,6,2.0,2.1,38,-99.99,,,0.00,0,rob ver 1A,2013-02-14 10:13:00,
2013-02-14 03:19:00,46.9,23.9,29.59,NE,44,3.1,3.6,40,-99.99,,,0.00,0,rob ver 1A,2013-02-14 10:19:00,
2013-02-14 03:24:00,46.3,23.9,29.59,NE,51,4.1,4.9,41,-99.99,,,0.00,0,rob ver 1B,2013-02-14 10:24:00,
2013-02-14 03:29:00,45.7,24.1,29.59,NE,39,4.2,4.5,42,-99.99,,,0.00,0,rob ver 1A,2013-02-14 10:29:00,
2013-02-14 03:34:00,44.9,24.3,29.59,NNE,30,4.3,4.7,44,-99.99,,,0.00,0,rob ver 1A,2013-02-14 10:34:00,
2013-02-14 03:39:00,45.4,24.2,29.59,North,357,3.5,4.0,42,-99.99,,,0.00,0,rob ver 1A,2013-02-14 10:39:00,
2013-02-14 03:44:00,45.4,24.2,29.59,North,357,2.7,2.9,42,-99.99,,,0.00,0,rob ver 1A,2013-02-14 10:44:00,
2013-02-14 03:49:00,45.3,24.0,29.59,North,359,3.3,3.4,42,-99.99,,,0.00,0,rob ver 1A,2013-02-14 10:49:00,
2013-02-14 03:54:00,45.2,24.0,29.59,North,8,3.2,3.6,42,-99.99,,,0.00,0,rob ver 1A,2013-02-14 10:54:00,
2013-02-14 03:59:00,45.5,23.9,29.59,NNE,16,3.6,3.8,42,-99.99,,,0.00,0,rob ver 1A,2013-02-14 10:59:00,
2013-02-14 04:04:00,45.8,23.9,29.59,North,11,3.8,4.2,41,-99.99,,,0.00,0,rob ver 1A,2013-02-14 11:04:00,
2013-02-14 04:09:00,45.5,24.0,29.59,NNE,15,1.8,1.9,42,-99.99,,,0.00,0,rob ver 1A,2013-02-14 11:09:00,
2013-02-14 04:14:00,45.7,23.8,29.59,NE,40,1.9,2.2,41,-99.99,,,0.00,0,rob ver 1A,2013-02-14 11:14:00,
2013-02-14 04:19:00,46.0,23.6,29.59,NNE,25,2.1,2.2,40,-99.99,,,0.00,0,rob ver 1A,2013-02-14 11:19:00,
2013-02-14 04:24:00,46.4,23.7,29.59,NNE,15,2.8,3.1,40,-99.99,,,0.00,0,rob ver 1A,2013-02-14 11:24:00,
2013-02-14 04:29:00,45.7,23.9,29.59,North,358,2.9,3.0,42,-99.99,,,0.00,0,rob ver 1A,2013-02-14 11:29:00,
2013-02-14 04:34:00,45.2,24.0,29.59,NNE,15,4.3,4.5,42,-99.99,,,0.00,0,rob ver 1A,2013-02-14 11:34:00,
2013-02-14 04:39:00,45.3,23.9,29.59,North,8,4.2,4.4,42,-99.99,,,0.00,0,rob ver 1A,2013-02-14 11:39:00,
2013-02-14 04:44:00,44.8,24.1,29.59,North,5,4.7,5.0,43,-99.99,,,0.00,0,rob ver 1A,2013-02-14 11:44:00,
2013-02-14 04:49:00,44.3,24.2,29.59,North,11,3.9,4.1,44,-99.99,,,0.00,0,rob ver 1A,2013-02-14 11:49:00,
2013-02-14 04:54:00,44.1,24.2,29.59,NNE,13,4.1,4.2,44,-99.99,,,0.00,0,rob ver 1A,2013-02-14 11:54:00,
2013-02-14 04:59:00,45.0,24.2,29.59,NNE,13,3.0,3.2,43,-99.99,,,0.00,0,rob ver 1A,2013-02-14 11:59:00,
2013-02-14 05:04:00,45.1,24.1,29.59,North,9,2.7,3.2,43,-99.99,,,0.00,0,rob ver 1A,2013-02-14 12:04:00,
2013-02-14 05:09:00,45.4,24.8,29.59,NW,325,0.7,1.1,44,-99.99,,,0.00,0,rob ver 1A,2013-02-14 12:09:00,
2013-02-14 05:14:00,44.1,24.6,29.59,SSW,202,1.6,2.0,45,-99.99,,,0.00,0,rob ver 1A,2013-02-14 12:14:00,
2013-02-14 05:19:00,43.4,24.5,29.59,SSW,195,0.3,0.4,47,-99.99,,,0.00,0,rob ver 1A,2013-02-14 12:19:00,
2013-02-14 05:25:00,43.5,24.5,29.59,North,350,1.1,1.4,46,-99.99,,,0.00,0,rob ver 1A,2013-02-14 12:25:00,
2013-02-14 05:30:00,43.8,24.4,29.59,NNE,32,2.7,3.0,45,-99.99,,,0.00,0,rob ver 1A,2013-02-14 12:30:00,
2013-02-14 05:35:00,44.0,24.3,29.59,NNE,20,2.2,2.5,45,-99.99,,,0.00,0,rob ver 1A,2013-02-14 12:35:00,
2013-02-14 05:40:00,44.5,24.0,29.59,North,7,2.4,2.6,43,-99.99,,,0.00,0,rob ver 1A,2013-02-14 12:40:00,
2013-02-14 05:45:00,44.4,24.4,29.59,NNE,16,2.3,2.6,45,-99.99,,,0.00,0,rob ver 1A,2013-02-14 12:45:00,
2013-02-14 05:50:00,43.7,24.7,29.59,NW,316,0.9,1.1,46,-99.99,,,0.00,0,rob ver 1A,2013-02-14 12:50:00,
2013-02-14 05:55:00,43.0,24.7,29.59,NNW,328,1.3,1.5,48,-99.99,,,0.00,0,rob ver 1A,2013-02-14 12:55:00,
2013-02-14 06:00:00,43.3,24.6,29.59,NW,313,1.9,2.0,47,-99.99,,,0.00,0,rob ver 1A,2013-02-14 13:00:00,
2013-02-14 06:05:00,43.7,24.7,29.59,NNW,341,2.1,2.3,46,-99.99,,,0.00,0,rob ver 1A,2013-02-14 13:05:00,
2013-02-14 06:10:00,44.3,24.3,29.59,North,5,2.1,2.6,44,-99.99,,,0.00,0,rob ver 1A,2013-02-14 13:10:00,
2013-02-14 06:15:00,45.2,24.2,29.59,NNW,346,0.9,1.3,43,-99.99,,,0.00,0,rob ver 1A,2013-02-14 13:15:00,
2013-02-14 06:20:00,45.0,24.3,29.59,SE,129,1.6,1.8,44,-99.99,,,0.00,0,rob ver 1B,2013-02-14 13:20:00,
2013-02-14 06:25:00,45.2,24.3,29.59,ENE,61,1.1,1.3,43,-99.99,,,0.00,0,rob ver 1A,2013-02-14 13:25:00,
2013-02-14 06:30:00,45.2,24.1,29.59,NNE,32,1.9,2.1,42,-99.99,,,0.00,0,rob ver 1A,2013-02-14 13:30:00,
2013-02-14 06:35:00,46.4,23.9,29.59,NNE,18,2.0,2.1,40,-99.99,,,0.00,0,rob ver 1A,2013-02-14 13:35:00,
2013-02-14 06:40:00,44.3,24.3,29.59,ENE,73,4.4,5.1,45,-99.99,,,0.00,0,rob ver 1A,2013-02-14 13:40:00,
2013-02-14 06:45:00,41.9,24.7,29.59,ENE,68,4.1,4.6,50,-99.99,,,0.00,0,rob ver 1A,2013-02-14 13:45:00,
2013-02-14 06:50:00,42.0,24.9,29.59,NE,37,4.0,4.3,50,-99.99,,,0.00,0,rob ver 1A,2013-02-14 13:50:00,
2013-02-14 06:55:00,41.6,24.9,29.59,NNE,12,3.7,4.2,51,-99.99,,,0.00,0,rob ver 1A,2013-02-14 13:55:00,
2013-02-14 07:00:00,42.0,24.8,29.59,NE,39,2.6,2.9,50,-99.99,,,0.00,0,rob ver 1A,2013-02-14 14:00:00,
2013-02-14 07:05:00,42.3,24.8,29.59,NE,36,2.3,2.8,49,-99.99,,,0.00,.329,rob ver 1A,2013-02-14 14:05:00,
2013-02-14 07:10:00,42.2,24.9,29.59,ENE,67,1.9,3.0,49,-99.99,,,0.00,1.316,rob ver 1A,2013-02-14 14:10:00,
2013-02-14 07:15:00,42.5,24.8,29.62,NE,40,3.6,4.0,49,-99.99,,,0.00,2.632,rob ver 1A,2013-02-14 14:15:00,
2013-02-14 07:20:00,42.0,25.0,29.62,NE,44,4.0,4.7,50,-99.99,,,0.00,4.606,rob ver 1A,2013-02-14 14:20:00,
2013-02-14 07:25:00,41.9,25.4,29.62,NNW,346,3.1,4.0,51,-99.99,,,0.00,11.51,rob ver 1A,2013-02-14 14:25:00,
2013-02-14 07:30:00,41.7,25.3,29.62,NE,42,4.6,5.2,51,-99.99,,,0.00,23.69,rob ver 1A,2013-02-14 14:30:00,
2013-02-14 07:35:00,42.6,25.3,29.62,NE,34,4.1,4.8,49,-99.99,,,0.00,33.88,rob ver 1A,2013-02-14 14:35:00,
2013-02-14 07:40:00,43.8,25.2,29.62,NE,38,4.9,5.5,47,-99.99,,,0.00,44.58,rob ver 1A,2013-02-14 14:40:00,
2013-02-14 07:45:00,44.7,25.2,29.62,NNE,26,3.5,3.8,45,-99.99,,,0.00,56.91,rob ver 1A,2013-02-14 14:45:00,
2013-02-14 07:50:00,43.4,24.9,29.62,East,93,4.0,6.6,47,-99.99,,,0.00,68.92,rob ver 1A,2013-02-14 14:50:00,
2013-02-14 07:56:00,44.1,25.1,29.62,ENE,74,2.3,2.7,46,-99.99,,,0.00,81.9,rob ver 1A,2013-02-14 14:56:00,
2013-02-14 08:01:00,46.0,25.5,29.62,NE,51,1.3,1.5,44,-99.99,,,0.00,95.7,rob ver 1B,2013-02-14 15:01:00,
2013-02-14 08:06:00,43.1,25.4,29.62,ESE,102,4.0,4.8,49,-99.99,,,0.00,109.7,rob ver 1A,2013-02-14 15:06:00,
2013-02-14 08:11:00,43.3,25.3,29.62,East,90,2.7,3.6,47,-99.99,,,0.00,124.7,rob ver 1A,2013-02-14 15:11:00,
2013-02-14 08:16:00,44.6,25.5,29.62,East,87,2.8,3.4,46,-99.99,,,0.00,140,rob ver 1A,2013-02-14 15:16:00,
2013-02-14 08:21:00,45.9,25.8,29.62,NNE,32,3.0,3.2,44,-99.99,,,0.00,155.3,rob ver 1A,2013-02-14 15:21:00,
2013-02-14 08:26:00,46.3,25.7,29.62,NE,54,3.5,4.2,43,-99.99,,,0.00,171.5,rob ver 1A,2013-02-14 15:26:00,
2013-02-14 08:31:00,46.8,25.9,29.62,ENE,58,1.7,2.3,43,-99.99,,,0.00,187.8,rob ver 1A,2013-02-14 15:31:00,
2013-02-14 08:36:00,48.2,26.3,29.62,ENE,71,1.4,2.8,42,-99.99,,,0.00,204.2,rob ver 1A,2013-02-14 15:36:00,
2013-02-14 08:41:00,47.9,26.1,29.62,SE,137,2.8,3.2,42,-99.99,,,0.00,220.5,rob ver 1A,2013-02-14 15:41:00,
2013-02-14 08:46:00,49.6,26.6,29.62,NE,49,1.6,2.0,40,-99.99,,,0.00,241.1,rob ver 1A,2013-02-14 15:46:00,
2013-02-14 08:51:00,51.1,27.1,29.62,NE,42,1.0,1.3,39,-99.99,,,0.00,257,rob ver 1A,2013-02-14 15:51:00,
2013-02-14 08:56:00,52.9,26.6,29.62,SE,139,1.1,1.7,35,-99.99,,,0.00,273.6,rob ver 1A,2013-02-14 15:56:00,
2013-02-14 09:01:00,53.5,25.9,29.62,SW,226,0.7,0.9,33,-99.99,,,0.00,290,rob ver 1A,2013-02-14 16:01:00,
2013-02-14 09:06:00,55.5,26.1,29.62,NNE,15,1.3,1.7,31,-99.99,,,0.00,307.1,rob ver 1A,2013-02-14 16:06:00,
2013-02-14 09:11:00,54.8,24.5,29.62,NNE,19,4.4,5.1,31,-99.99,,,0.00,322.9,rob ver 1A,2013-02-14 16:11:00,
2013-02-14 09:16:00,54.9,24.5,29.62,North,0,1.7,2.0,30,-99.99,,,0.00,339.6,rob ver 1A,2013-02-14 16:16:00,
2013-02-14 09:21:00,55.6,24.2,29.62,NNE,26,1.9,2.3,29,-99.99,,,0.00,355.7,rob ver 1A,2013-02-14 16:21:00,
2013-02-14 09:26:00,56.2,23.7,29.65,NE,42,1.9,2.8,27,-99.99,,,0.00,371.4,rob ver 1A,2013-02-14 16:26:00,
2013-02-14 09:31:00,57.3,23.6,29.65,NNE,19,2.0,2.6,27,-99.99,,,0.00,387.2,rob ver 1A,2013-02-14 16:31:00,
2013-02-14 09:36:00,58.6,24.4,29.65,WSW,251,1.1,1.4,25,-99.99,,,0.00,403,rob ver 1B,2013-02-14 16:36:00,
2013-02-14 09:41:00,59.4,24.1,29.65,WNW,301,0.7,1.4,25,-99.99,,,0.00,418.1,rob ver 1A,2013-02-14 16:41:00,
2013-02-14 09:47:00,61.1,24.4,29.65,SSE,167,0.7,1.0,24,-99.99,,,0.00,433.8,rob ver 1A,2013-02-14 16:47:00,
2013-02-14 09:52:00,60.1,25.5,29.65,SW,220,2.2,3.1,26,-99.99,,,0.00,448.2,rob ver 1A,2013-02-14 16:52:00,
2013-02-14 09:57:00,58.4,24.3,29.62,SSW,213,1.7,2.3,26,-99.99,,,0.00,463.3,rob ver 1A,2013-02-14 16:57:00,
2013-02-14 10:02:00,58.9,24.3,29.65,SSW,213,1.8,2.5,26,-99.99,,,0.00,477.7,rob ver 1A,2013-02-14 17:02:00,
2013-02-14 10:07:00,60.2,25.0,29.65,South,190,0.8,1.5,25,-99.99,,,0.00,491.5,rob ver 1A,2013-02-14 17:07:00,
2013-02-14 10:12:00,59.2,24.9,29.65,WSW,238,2.9,4.1,26,-99.99,,,0.00,505.9,rob ver 1A,2013-02-14 17:12:00,
2013-02-14 10:17:00,58.8,24.8,29.65,South,188,2.8,4.9,27,-99.99,,,0.00,518.2,rob ver 1A,2013-02-14 17:17:00,
2013-02-14 10:22:00,58.8,24.9,29.65,SW,222,3.4,4.4,27,-99.99,,,0.00,531.6,rob ver 1A,2013-02-14 17:22:00,
2013-02-14 10:27:00,59.7,25.1,29.65,SW,220,2.3,3.3,25,-99.99,,,0.00,543.9,rob ver 1A,2013-02-14 17:27:00,
2013-02-14 10:32:00,61.1,25.4,29.65,SSW,205,1.7,2.8,25,-99.99,,,0.00,557.2,rob ver 1A,2013-02-14 17:32:00,
2013-02-14 10:37:00,60.3,25.1,29.65,WSW,245,3.2,4.7,25,-99.99,,,0.00,568.1,rob ver 1A,2013-02-14 17:37:00,
2013-02-14 10:42:00,60.4,25.4,29.65,SSW,208,1.4,2.5,25,-99.99,,,0.00,580.6,rob ver 1A,2013-02-14 17:42:00,
2013-02-14 10:47:00,60.7,25.4,29.65,West,262,3.1,4.4,25,-99.99,,,0.00,591.1,rob ver 1A,2013-02-14 17:47:00,
2013-02-14 10:52:00,60.7,25.5,29.65,WSW,242,3.7,4.6,25,-99.99,,,0.00,601.1,rob ver 1A,2013-02-14 17:52:00,
2013-02-14 10:57:00,61.1,25.5,29.65,SSW,202,4.5,6.3,25,-99.99,,,0.00,614.3,rob ver 1A,2013-02-14 17:57:00,
2013-02-14 11:02:00,61.6,25.3,29.65,SSW,213,3.0,4.3,24,-99.99,,,0.00,623.9,rob ver 1A,2013-02-14 18:02:00,
2013-02-14 11:07:00,62.5,25.5,29.65,SW,231,5.0,7.6,24,-99.99,,,0.00,634.3,rob ver 1A,2013-02-14 18:07:00,
2013-02-14 11:12:00,62.3,25.3,29.68,SSW,209,4.2,6.2,24,-99.99,,,0.00,642.8,rob ver 1A,2013-02-14 18:12:00,
2013-02-14 11:17:00,63.2,25.4,29.68,SW,222,7.3,9.3,23,-99.99,,,0.00,651.8,rob ver 1A,2013-02-14 18:17:00,
2013-02-14 11:22:00,63.2,25.1,29.68,SW,222,7.0,8.2,23,-99.99,,,0.00,660.2,rob ver 1A,2013-02-14 18:22:00,
2013-02-14 11:27:00,63.6,25.1,29.68,SSW,202,7.9,10.1,22,-99.99,,,0.00,668.2,rob ver 1B,2013-02-14 18:27:00,
2013-02-14 11:32:00,64.2,25.4,29.68,SSW,194,10.8,13.0,23,-99.99,,,0.00,674.4,rob ver 1A,2013-02-14 18:32:00,
2013-02-14 11:38:00,63.7,25.3,29.68,South,174,10.9,13.5,23,-99.99,,,0.00,681.3,rob ver 1B,2013-02-14 18:38:00,
2013-02-14 11:43:00,63.2,25.5,29.68,South,172,8.1,9.7,23,-99.99,,,0.00,690.5,rob ver 1A,2013-02-14 18:43:00,
2013-02-14 11:48:00,64.0,25.5,29.68,South,170,5.1,6.9,23,-99.99,,,0.00,697.5,rob ver 1A,2013-02-14 18:48:00,
2013-02-14 11:53:00,65.3,26.1,29.65,WSW,255,4.1,7.0,22,-99.99,,,0.00,704,rob ver 1A,2013-02-14 18:53:00,
2013-02-14 11:58:00,66.1,26.2,29.65,WNW,301,5.5,7.7,21,-99.99,,,0.00,709,rob ver 1A,2013-02-14 18:58:00,
2013-02-14 12:03:00,66.1,26.0,29.65,SW,232,4.0,8.2,22,-99.99,,,0.00,715,rob ver 1A,2013-02-14 19:03:00,
2013-02-14 12:08:00,66.6,25.6,29.65,West,277,9.9,12.0,20,-99.99,,,0.00,718,rob ver 1A,2013-02-14 19:08:00,
2013-02-14 12:13:00,67.9,26.0,29.62,West,276,7.9,9.6,20,-99.99,,,0.00,721,rob ver 1B,2013-02-14 19:13:00,
2013-02-14 12:18:00,66.8,25.8,29.62,West,262,6.7,9.1,21,-99.99,,,0.00,725,rob ver 1B,2013-02-14 19:18:00,
2013-02-14 12:23:00,67.2,26.0,29.62,West,266,6.1,9.8,21,-99.99,,,0.00,730,rob ver 1B,2013-02-14 19:23:00,
2013-02-14 12:28:00,67.9,26.4,29.62,West,268,7.1,9.5,20,-99.99,,,0.00,732,rob ver 1A,2013-02-14 19:28:00,
2013-02-14 12:33:00,68.4,25.6,29.62,WNW,296,9.9,12.1,19,-99.99,,,0.00,736,rob ver 1A,2013-02-14 19:33:00,
2013-02-14 12:38:00,68.4,25.9,29.62,WNW,283,8.3,9.8,20,-99.99,,,0.00,736,rob ver 1A,2013-02-14 19:38:00,
2013-02-14 12:43:00,69.0,25.8,29.59,WNW,287,9.4,11.3,19,-99.99,,,0.00,736,rob ver 1A,2013-02-14 19:43:00,
2013-02-14 12:48:00,70.3,24.2,29.59,WNW,302,12.5,15.9,17,-99.99,,,0.00,741,rob ver 1B,2013-02-14 19:48:00,
2013-02-14 12:53:00,70.6,24.3,29.59,West,275,11.2,14.4,17,-99.99,,,0.00,741,rob ver 1A,2013-02-14 19:53:00,
2013-02-14 12:59:00,70.9,24.3,29.59,NW,305,11.7,17.5,16,-99.99,,,0.00,741,rob ver 1A,2013-02-14 19:59:00,
2013-02-14 13:04:00,70.7,24.1,29.59,NNW,329,13.7,17.2,17,-99.99,,,0.00,740,rob ver 1A,2013-02-14 20:04:00,
2013-02-14 13:09:00,70.7,24.1,29.59,WNW,301,10.9,16.2,16,-99.99,,,0.00,738,rob ver 1A,2013-02-14 20:09:00,
2013-02-14 13:14:00,70.5,23.9,29.59,NW,306,12.3,14.7,17,-99.99,,,0.00,736,rob ver 1A,2013-02-14 20:14:00,
2013-02-14 13:19:00,71.8,24.5,29.59,WNW,303,12.7,15.7,16,-99.99,,,0.00,736,rob ver 1B,2013-02-14 20:19:00,
2013-02-14 13:24:00,71.0,24.4,29.59,NW,317,9.6,12.5,17,-99.99,,,0.00,732,rob ver 1A,2013-02-14 20:24:00,
2013-02-14 13:29:00,71.3,24.7,29.59,WNW,292,16.1,18.8,16,-99.99,,,0.00,731,rob ver 1A,2013-02-14 20:29:00,
2013-02-14 13:34:00,71.1,24.5,29.59,WNW,300,14.4,20.7,17,-99.99,,,0.00,727,rob ver 1A,2013-02-14 20:34:00,
2013-02-14 13:39:00,71.0,24.6,29.59,WNW,293,15.5,20.7,17,-99.99,,,0.00,724,rob ver 1A,2013-02-14 20:39:00,
2013-02-14 13:44:00,72.5,24.7,29.59,NW,305,15.6,19.1,16,-99.99,,,0.00,720,rob ver 1A,2013-02-14 20:44:00,
2013-02-14 13:49:00,72.4,25.0,29.56,WNW,297,16.1,20.4,16,-99.99,,,0.00,715,rob ver 1A,2013-02-14 20:49:00,
2013-02-14 13:54:00,71.4,24.0,29.56,NW,315,14.8,18.7,17,-99.99,,,0.00,711,rob ver 1A,2013-02-14 20:54:00,
2013-02-14 13:59:00,71.8,24.3,29.56,NW,318,18.3,23.1,16,-99.99,,,0.00,706,rob ver 1A,2013-02-14 20:59:00,
2013-02-14 14:04:00,71.4,24.3,29.56,NW,318,15.8,21.6,17,-99.99,,,0.00,698.8,rob ver 1A,2013-02-14 21:04:00,
2013-02-14 14:09:00,71.7,24.2,29.56,WNW,300,16.9,22.2,16,-99.99,,,0.00,693.7,rob ver 1A,2013-02-14 21:09:00,
2013-02-14 14:14:00,72.6,24.5,29.56,NW,309,16.7,20.9,16,-99.99,,,0.00,687.6,rob ver 1A,2013-02-14 21:14:00,
2013-02-14 14:19:00,72.4,24.5,29.56,NW,322,12.0,14.3,16,-99.99,,,0.00,679.1,rob ver 1A,2013-02-14 21:19:00,
2013-02-14 14:24:00,72.7,24.2,29.53,WNW,301,19.0,22.2,15,-99.99,,,0.00,673.3,rob ver 1A,2013-02-14 21:24:00,
2013-02-14 14:29:00,72.6,23.9,29.56,NW,320,15.4,18.8,16,-99.99,,,0.00,666,rob ver 1A,2013-02-14 21:29:00,
2013-02-14 14:34:00,73.0,23.8,29.56,NW,314,15.9,18.6,15,-99.99,,,0.00,658.1,rob ver 1A,2013-02-14 21:34:00,
2013-02-14 14:39:00,73.2,24.0,29.53,WNW,303,19.7,22.3,15,-99.99,,,0.00,649.2,rob ver 1A,2013-02-14 21:39:00,
2013-02-14 14:44:00,72.5,24.1,29.53,NW,321,12.0,18.8,15,-99.99,,,0.00,639.6,rob ver 1A,2013-02-14 21:44:00,
2013-02-14 14:49:00,73.0,24.4,29.53,NW,315,15.4,21.9,16,-99.99,,,0.00,630,rob ver 1A,2013-02-14 21:49:00,
2013-02-14 14:54:00,73.2,24.2,29.53,NW,313,15.1,19.4,15,-99.99,,,0.00,614.9,rob ver 1A,2013-02-14 21:54:00,
2013-02-14 14:59:00,72.5,24.1,29.56,NW,322,10.3,14.7,16,-99.99,,,0.00,608.9,rob ver 1A,2013-02-14 21:59:00,
2013-02-14 15:04:00,73.2,24.2,29.53,WNW,301,13.8,16.5,16,-99.99,,,0.00,599.2,rob ver 1A,2013-02-14 22:04:00,
2013-02-14 15:09:00,73.3,24.3,29.53,WNW,291,18.7,22.4,15,-99.99,,,0.00,580.5,rob ver 1A,2013-02-14 22:09:00,
2013-02-14 15:14:00,73.3,24.4,29.53,WNW,289,15.9,20.0,16,-99.99,,,0.00,577.1,rob ver 1A,2013-02-14 22:14:00,
2013-02-14 15:19:00,73.5,24.4,29.53,NNW,329,15.3,20.3,16,-99.99,,,0.00,553.1,rob ver 1A,2013-02-14 22:19:00,
2013-02-14 15:25:00,73.1,24.4,29.53,WNW,302,19.4,22.9,16,-99.99,,,0.00,530.8,rob ver 1A,2013-02-14 22:25:00,
2013-02-14 15:30:00,73.0,24.6,29.53,NW,308,13.5,18.1,16,-99.99,,,0.00,521.5,rob ver 1A,2013-02-14 22:30:00,
2013-02-14 15:35:00,73.0,24.4,29.53,WNW,294,17.7,21.0,16,-99.99,,,0.00,521.3,rob ver 1A,2013-02-14 22:35:00,
2013-02-14 15:40:00,73.4,24.4,29.53,NW,305,17.9,23.0,15,-99.99,,,0.00,508,rob ver 1A,2013-02-14 22:40:00,
2013-02-14 15:45:00,72.9,24.2,29.53,WNW,287,11.0,14.1,16,-99.99,,,0.00,488.8,rob ver 1A,2013-02-14 22:45:00,
2013-02-14 15:50:00,73.2,24.1,29.53,WNW,300,17.3,22.7,15,-99.99,,,0.00,463.4,rob ver 1B,2013-02-14 22:50:00,
2013-02-14 15:55:00,73.3,24.2,29.53,NW,306,14.5,18.5,16,-99.99,,,0.00,446,rob ver 1A,2013-02-14 22:55:00,
2013-02-14 16:00:00,72.8,24.5,29.53,NW,311,12.8,16.2,16,-99.99,,,0.00,401.6,rob ver 1A,2013-02-14 23:00:00,
2013-02-14 16:05:00,73.1,24.3,29.53,WNW,299,13.8,18.2,16,-99.99,,,0.00,408.5,rob ver 1A,2013-02-14 23:05:00,
2013-02-14 16:10:00,73.2,24.3,29.53,NW,318,15.0,18.5,15,-99.99,,,0.00,401.4,rob ver 1A,2013-02-14 23:10:00,
2013-02-14 16:15:00,73.5,24.5,29.53,NW,321,10.3,12.9,15,-99.99,,,0.00,403.4,rob ver 1B,2013-02-14 23:15:00,
2013-02-14 16:20:00,73.6,24.4,29.53,NW,322,13.4,16.7,15,-99.99,,,0.00,355.7,rob ver 1A,2013-02-14 23:20:00,
2013-02-14 16:25:00,73.6,23.8,29.53,NW,307,13.5,18.0,15,-99.99,,,0.00,323.7,rob ver 1A,2013-02-14 23:25:00,
2013-02-14 16:30:00,73.2,23.2,29.53,WNW,292,14.0,16.8,15,-99.99,,,0.00,295.2,rob ver 1A,2013-02-14 23:30:00,
2013-02-14 16:35:00,73.7,23.7,29.53,WNW,299,13.8,16.5,15,-99.99,,,0.00,312.4,rob ver 1A,2013-02-14 23:35:00,
2013-02-14 16:40:00,73.2,24.0,29.53,NW,305,12.6,15.0,15,-99.99,,,0.00,249.9,rob ver 1A,2013-02-14 23:40:00,
2013-02-14 16:45:00,73.3,24.1,29.53,NW,312,10.9,15.4,15,-99.99,,,0.00,210.9,rob ver 1A,2013-02-14 23:45:00,
2013-02-14 16:50:00,73.0,23.5,29.53,WNW,286,11.6,15.3,15,-99.99,,,0.00,222.4,rob ver 1A,2013-02-14 23:50:00,
2013-02-14 16:55:00,73.1,23.1,29.53,NW,305,13.6,17.3,15,-99.99,,,0.00,185,rob ver 1A,2013-02-14 23:55:00,
2013-02-14 17:00:00,73.1,23.3,29.53,NNW,339,11.3,14.8,15,-99.99,,,0.00,158.4,rob ver 1A,2013-02-15 00:00:00,
2013-02-14 17:05:00,72.8,23.1,29.53,NNW,327,10.4,13.4,15,-99.99,,,0.00,141.7,rob ver 1A,2013-02-15 00:05:00,
2013-02-14 17:10:00,72.7,23.4,29.53,NW,326,10.1,12.4,15,-99.99,,,0.00,125.6,rob ver 1A,2013-02-15 00:10:00,
2013-02-14 17:15:00,72.5,23.5,29.53,NW,317,11.5,13.2,15,-99.99,,,0.00,105,rob ver 1A,2013-02-15 00:15:00,
2013-02-14 17:20:00,72.4,23.8,29.53,NW,326,6.2,7.6,15,-99.99,,,0.00,96.4,rob ver 1A,2013-02-15 00:20:00,
2013-02-14 17:25:00,72.5,23.4,29.53,NW,313,9.5,11.3,15,-99.99,,,0.00,89.2,rob ver 1A,2013-02-15 00:25:00,
2013-02-14 17:30:00,72.4,23.5,29.53,NNW,330,7.4,9.3,15,-99.99,,,0.00,84,rob ver 1A,2013-02-15 00:30:00,
2013-02-14 17:35:00,72.3,22.6,29.53,NNW,337,8.3,10.4,15,-99.99,,,0.00,75.1,rob ver 1A,2013-02-15 00:35:00,
2013-02-14 17:40:00,72.1,22.8,29.53,NNW,334,8.3,10.0,15,-99.99,,,0.00,66.25,rob ver 1A,2013-02-15 00:40:00,
2013-02-14 17:45:00,71.9,22.6,29.53,NNW,330,9.3,11.5,15,-99.99,,,0.00,49.85,rob ver 1A,2013-02-15 00:45:00,
2013-02-14 17:51:00,71.6,22.7,29.53,NNW,332,8.4,9.8,15,-99.99,,,0.00,40.01,rob ver 1A,2013-02-15 00:51:00,
2013-02-14 17:56:00,71.3,23.0,29.53,NNW,335,9.0,11.1,16,-99.99,,,0.00,32.8,rob ver 1A,2013-02-15 00:56:00,
2013-02-14 18:01:00,71.0,23.3,29.53,NNW,327,7.1,10.1,16,-99.99,,,0.00,27.55,rob ver 1A,2013-02-15 01:01:00,
2013-02-14 18:06:00,70.9,23.1,29.53,NNW,332,8.7,11.0,16,-99.99,,,0.00,20.34,rob ver 1A,2013-02-15 01:06:00,
2013-02-14 18:11:00,70.8,23.2,29.53,NNW,329,8.5,11.6,16,-99.99,,,0.00,13.78,rob ver 1A,2013-02-15 01:11:00,
2013-02-14 18:16:00,70.8,23.1,29.53,NNW,336,9.9,13.2,16,-99.99,,,0.00,7.87,rob ver 1A,2013-02-15 01:16:00,
2013-02-14 18:21:00,70.4,23.2,29.53,NNW,334,10.2,13.2,16,-99.99,,,0.00,2.952,rob ver 1A,2013-02-15 01:21:00,
2013-02-14 18:26:00,70.0,23.5,29.53,NNW,339,7.7,9.2,17,-99.99,,,0.00,1.64,rob ver 1A,2013-02-15 01:26:00,
2013-02-14 18:31:00,69.5,23.8,29.53,NNW,338,5.5,6.6,17,-99.99,,,0.00,.984,rob ver 1A,2013-02-15 01:31:00,
2013-02-14 18:36:00,68.9,24.1,29.53,NNW,335,5.1,5.8,18,-99.99,,,0.00,.328,rob ver 1A,2013-02-15 01:36:00,
2013-02-14 18:41:00,68.5,24.4,29.53,NNW,341,3.8,4.5,18,-99.99,,,0.00,0,rob ver 1A,2013-02-15 01:41:00,
2013-02-14 18:46:00,67.7,24.7,29.53,NNW,347,5.1,6.3,19,-99.99,,,0.00,0,rob ver 1A,2013-02-15 01:46:00,
2013-02-14 18:51:00,67.3,24.7,29.53,NNW,342,4.8,5.4,19,-99.99,,,0.00,0,rob ver 1A,2013-02-15 01:51:00,
2013-02-14 18:56:00,67.0,24.9,29.56,NNW,339,4.1,5.1,20,-99.99,,,0.00,0,rob ver 1A,2013-02-15 01:56:00,
2013-02-14 19:01:00,66.7,25.0,29.56,NNW,347,4.2,4.6,20,-99.99,,,0.00,0,rob ver 1A,2013-02-15 02:01:00,
2013-02-14 19:06:00,66.5,25.1,29.56,NNW,343,4.1,4.5,20,-99.99,,,0.00,0,rob ver 1A,2013-02-15 02:06:00,
2013-02-14 19:11:00,66.2,25.2,29.56,NNW,340,3.7,4.5,21,-99.99,,,0.00,0,rob ver 1A,2013-02-15 02:11:00,
2013-02-14 19:16:00,65.7,25.4,29.56,NNW,344,5.0,5.3,21,-99.99,,,0.00,0,rob ver 1A,2013-02-15 02:16:00,
2013-02-14 19:21:00,65.6,25.4,29.56,NNW,346,5.2,5.7,21,-99.99,,,0.00,0,rob ver 1A,2013-02-15 02:21:00,
2013-02-14 19:26:00,65.7,25.4,29.56,NNW,346,4.7,5.4,21,-99.99,,,0.00,0,rob ver 1A,2013-02-15 02:26:00,
2013-02-14 19:31:00,65.3,25.5,29.56,North,354,5.0,5.6,22,-99.99,,,0.00,0,rob ver 1A,2013-02-15 02:31:00,
2013-02-14 19:36:00,65.4,25.3,29.56,North,4,4.7,5.0,21,-99.99,,,0.00,0,rob ver 1A,2013-02-15 02:36:00,
2013-02-14 19:41:00,65.5,25.2,29.56,North,356,3.9,4.3,21,-99.99,,,0.00,0,rob ver 1B,2013-02-15 02:41:00,
2013-02-14 19:46:00,65.1,25.5,29.56,NNW,342,4.0,4.5,22,-99.99,,,0.00,0,rob ver 1A,2013-02-15 02:46:00,
2013-02-14 19:51:00,64.4,25.3,29.56,NNW,343,3.4,3.8,22,-99.99,,,0.00,0,rob ver 1A,2013-02-15 02:51:00,
2013-02-14 19:56:00,64.2,25.3,29.56,NNW,341,3.6,4.3,22,-99.99,,,0.00,0,rob ver 1A,2013-02-15 02:56:00,
2013-02-14 20:01:00,64.1,25.3,29.56,NNW,339,3.9,4.7,22,-99.99,,,0.00,0,rob ver 1A,2013-02-15 03:01:00,
2013-02-14 20:06:00,63.9,25.4,29.56,NNW,342,4.1,4.5,23,-99.99,,,0.00,0,rob ver 1A,2013-02-15 03:06:00,
2013-02-14 20:12:00,63.6,25.4,29.56,NNW,344,4.6,5.0,23,-99.99,,,0.00,0,rob ver 1A,2013-02-15 03:12:00,
2013-02-14 20:17:00,63.6,25.3,29.56,NNW,344,5.9,6.9,23,-99.99,,,0.00,0,rob ver 1A,2013-02-15 03:17:00,
2013-02-14 20:22:00,64.5,25.1,29.56,NNW,340,7.1,10.2,22,-99.99,,,0.00,0,rob ver 1A,2013-02-15 03:22:00,
2013-02-14 20:27:00,66.1,24.7,29.56,NW,324,8.2,10.8,20,-99.99,,,0.00,0,rob ver 1A,2013-02-15 03:27:00,
2013-02-14 20:32:00,66.5,24.3,29.56,NNW,327,9.9,12.7,19,-99.99,,,0.00,0,rob ver 1A,2013-02-15 03:32:00,
2013-02-14 20:37:00,66.7,24.0,29.56,NW,324,9.6,11.2,19,-99.99,,,0.00,0,rob ver 1A,2013-02-15 03:37:00,
2013-02-14 20:42:00,66.7,23.8,29.56,NW,324,10.5,13.1,19,-99.99,,,0.00,0,rob ver 1A,2013-02-15 03:42:00,
2013-02-14 20:47:00,66.1,23.9,29.56,NW,314,10.7,13.2,20,-99.99,,,0.00,0,rob ver 1A,2013-02-15 03:47:00,
2013-02-14 20:52:00,65.9,23.9,29.56,NW,310,10.4,13.3,20,-99.99,,,0.00,0,rob ver 1A,2013-02-15 03:52:00,
2013-02-14 20:57:00,65.6,24.0,29.56,NW,315,9.0,10.2,20,-99.99,,,0.00,0,rob ver 1B,2013-02-15 03:57:00,
2013-02-14 21:02:00,65.3,24.1,29.59,NW,313,8.5,10.7,20,-99.99,,,0.00,0,rob ver 1A,2013-02-15 04:02:00,
2013-02-14 21:07:00,64.9,24.1,29.59,NW,310,7.7,9.6,21,-99.99,,,0.00,0,rob ver 1A,2013-02-15 04:07:00,
2013-02-14 21:12:00,64.8,24.1,29.59,NW,305,8.6,9.7,21,-99.99,,,0.00,0,rob ver 1A,2013-02-15 04:12:00,
2013-02-14 21:17:00,65.0,24.1,29.59,NW,312,10.6,13.0,20,-99.99,,,0.00,0,rob ver 1A,2013-02-15 04:17:00,
2013-02-14 21:22:00,65.0,24.1,29.59,NW,308,10.7,12.8,20,-99.99,,,0.00,0,rob ver 1A,2013-02-15 04:22:00,
2013-02-14 21:27:00,64.8,24.1,29.59,NW,306,9.7,11.6,21,-99.99,,,0.00,0,rob ver 1A,2013-02-15 04:27:00,
2013-02-14 21:32:00,64.3,24.3,29.59,WNW,296,8.1,9.5,21,-99.99,,,0.00,0,rob ver 1A,2013-02-15 04:32:00,
2013-02-14 21:37:00,64.1,24.2,29.59,WNW,303,8.6,10.0,21,-99.99,,,0.00,0,rob ver 1A,2013-02-15 04:37:00,
2013-02-14 21:42:00,64.2,24.1,29.59,NW,307,8.6,10.9,21,-99.99,,,0.00,0,rob ver 1A,2013-02-15 04:42:00,
2013-02-14 21:47:00,64.2,24.0,29.59,NW,309,9.6,12.3,21,-99.99,,,0.00,0,rob ver 1A,2013-02-15 04:47:00,
2013-02-14 21:52:00,64.5,23.9,29.59,NW,310,10.9,13.2,21,-99.99,,,0.00,0,rob ver 1A,2013-02-15 04:52:00,
2013-02-14 21:57:00,64.5,23.8,29.59,NW,304,10.3,12.6,20,-99.99,,,0.00,0,rob ver 1A,2013-02-15 04:57:00,
2013-02-14 22:00:00,64.4,23.8,29.59,WNW,296,8.6,10.5,21,-99.99,,,0.00,0,rob ver 1A,2013-02-15 05:00:00,
2013-02-14 22:01:00,64.1,23.9,29.59,WNW,295,7.6,9.2,21,-99.99,,,0.00,0,rob ver 1A,2013-02-15 05:01:00,
2013-02-14 22:04:00,64.0,24.0,29.59,WNW,293,7.8,9.6,21,-99.99,,,0.00,0,rob ver 1A,2013-02-15 05:04:00,
2013-02-14 22:09:00,63.1,24.1,29.59,WNW,301,7.7,9.9,22,-99.99,,,0.00,0,rob ver 1A,2013-02-15 05:09:00,
2013-02-14 22:14:00,62.8,24.1,29.59,WNW,299,6.6,7.6,22,-99.99,,,0.00,0,rob ver 1A,2013-02-15 05:14:00,
2013-02-14 22:19:00,62.8,24.0,29.59,NW,305,8.7,10.3,22,-99.99,,,0.00,0,rob ver 1A,2013-02-15 05:19:00,
2013-02-14 22:24:00,62.8,24.1,29.59,WNW,298,8.0,9.8,22,-99.99,,,0.00,0,rob ver 1A,2013-02-15 05:24:00,
2013-02-14 22:29:00,61.0,24.4,29.59,WNW,297,6.6,9.4,24,-99.99,,,0.00,0,rob ver 1A,2013-02-15 05:29:00,
2013-02-14 22:34:00,62.5,24.0,29.59,NW,307,9.3,11.9,22,-99.99,,,0.00,0,rob ver 1A,2013-02-15 05:34:00,
2013-02-14 22:39:00,62.6,24.0,29.59,NW,309,9.6,11.6,22,-99.99,,,0.00,0,rob ver 1A,2013-02-15 05:39:00,
2013-02-14 22:44:00,62.4,24.0,29.59,NW,308,9.2,11.3,22,-99.99,,,0.00,0,rob ver 1A,2013-02-15 05:44:00,
2013-02-14 22:49:00,62.7,23.9,29.59,NW,307,10.5,12.1,22,-99.99,,,0.00,0,rob ver 1A,2013-02-15 05:49:00,
2013-02-14 22:54:00,62.5,24.0,29.59,WNW,301,10.0,11.9,22,-99.99,,,0.00,0,rob ver 1A,2013-02-15 05:54:00,
2013-02-14 22:59:00,62.3,24.0,29.59,WNW,301,10.2,11.7,22,-99.99,,,0.00,0,rob ver 1A,2013-02-15 05:59:00,
2013-02-14 23:04:00,62.5,24.0,29.59,WNW,301,10.7,12.7,22,-99.99,,,0.00,0,rob ver 1A,2013-02-15 06:04:00,
2013-02-14 23:09:00,62.2,24.0,29.59,WNW,301,10.1,12.5,23,-99.99,,,0.00,0,rob ver 1A,2013-02-15 06:09:00,
2013-02-14 23:14:00,62.2,24.0,29.62,WNW,301,10.0,11.9,23,-99.99,,,0.00,0,rob ver 1A,2013-02-15 06:14:00,
2013-02-14 23:19:00,62.1,24.0,29.59,WNW,298,11.2,13.2,23,-99.99,,,0.00,0,rob ver 1A,2013-02-15 06:19:00,
2013-02-14 23:24:00,61.8,24.1,29.59,WNW,297,10.0,11.7,23,-99.99,,,0.00,0,rob ver 1A,2013-02-15 06:24:00,
2013-02-14 23:29:00,61.7,24.1,29.59,WNW,301,10.0,11.5,23,-99.99,,,0.00,0,rob ver 1A,2013-02-15 06:29:00,
2013-02-14 23:34:00,61.8,24.0,29.59,WNW,300,10.8,12.6,23,-99.99,,,0.00,0,rob ver 1A,2013-02-15 06:34:00,
2013-02-14 23:39:00,61.9,24.0,29.59,WNW,297,11.3,13.1,23,-99.99,,,0.00,0,rob ver 1A,2013-02-15 06:39:00,
2013-02-14 23:45:00,61.8,24.0,29.59,WNW,296,11.6,13.2,23,-99.99,,,0.00,0,rob ver 1A,2013-02-15 06:45:00,
2013-02-14 23:50:00,61.8,24.1,29.59,WNW,299,10.9,13.3,23,-99.99,,,0.00,0,rob ver 1A,2013-02-15 06:50:00,
2013-02-14 23:55:00,61.7,24.1,29.59,WNW,297,11.2,13.2,23,-99.99,,,0.00,0,rob ver 1A,2013-02-15 06:55:00,